CFG7LD EDDF-LEBL

Flight info

Callsign CFG7LD
Flight time N/A
Altitude 33000
Route ANEKI2L ANEKI Y163 HERBI Y164 MOPAN DCT LUTIX DCT BENOT DCT NEMOS DCT GEVEA/N0429F270 DCT INCUS DCT BALSI/N0458F350 DCT RETNO DCT TUPOX DCT MTG DCT DIVKO DCT NILDU DCT BISBA
Aircraft A321/M-SDE3FGHIRWY/LB1

Departure

Time 2026-05-05 14:04
Airport Frankfurt Main Airport (EDDF)

Arrival

Time N/A
Airport Josep Tarradellas Barcelona-El Prat Airport (LEBL)
Time Latitude Longitude Altitude Speed Heading
2026-05-05 13:38 50.04093 8.55754 352 ft 0 kts 159°
2026-05-05 13:54 50.04085 8.55759 351 ft 2 kts 159°
2026-05-05 13:54 50.04071 8.55768 355 ft 4 kts 158°
2026-05-05 13:54 50.04041 8.55786 352 ft 5 kts 162°
2026-05-05 13:55 50.04009 8.55779 350 ft 5 kts 206°
2026-05-05 13:55 50.03990 8.55732 351 ft 5 kts 250°
2026-05-05 13:55 50.03980 8.55686 354 ft 4 kts 254°
2026-05-05 13:55 50.03974 8.55652 352 ft 3 kts 254°
2026-05-05 13:56 50.03969 8.55628 353 ft 3 kts 253°
2026-05-05 13:56 50.03953 8.55549 351 ft 9 kts 251°
2026-05-05 13:56 50.03935 8.55474 356 ft 6 kts 249°
2026-05-05 13:56 50.03917 8.55401 356 ft 10 kts 249°
2026-05-05 13:57 50.03890 8.55292 355 ft 10 kts 249°
2026-05-05 13:57 50.03866 8.55195 350 ft 9 kts 249°
2026-05-05 13:57 50.03839 8.55080 350 ft 16 kts 250°
2026-05-05 13:57 50.03799 8.54908 349 ft 17 kts 250°
2026-05-05 13:58 50.03759 8.54740 349 ft 16 kts 250°
2026-05-05 13:58 50.03721 8.54581 353 ft 16 kts 249°
2026-05-05 13:58 50.03682 8.54420 348 ft 16 kts 249°
2026-05-05 13:58 50.03646 8.54270 350 ft 14 kts 249°
2026-05-05 13:59 50.03569 8.53946 337 ft 20 kts 250°
2026-05-05 13:59 50.03522 8.53751 340 ft 19 kts 249°
2026-05-05 14:00 50.03432 8.53377 333 ft 18 kts 250°
2026-05-05 14:00 50.03390 8.53199 333 ft 17 kts 250°
2026-05-05 14:00 50.03349 8.53022 333 ft 17 kts 250°
2026-05-05 14:00 50.03307 8.52853 333 ft 16 kts 249°
2026-05-05 14:01 50.03267 8.52690 332 ft 15 kts 249°
2026-05-05 14:01 50.03241 8.52603 333 ft 6 kts 228°
2026-05-05 14:01 50.03213 8.52594 334 ft 3 kts 176°
2026-05-05 14:01 50.03206 8.52594 334 ft 0 kts 176°
2026-05-05 14:03 50.03013 8.52598 332 ft 62 kts 180°
2026-05-05 14:03 50.02379 8.52605 335 ft 118 kts 179°
2026-05-05 14:03 50.01407 8.52614 334 ft 161 kts 179°
2026-05-05 14:04 50.00188 8.52643 550 ft 180 kts 182°
2026-05-05 14:04 49.98949 8.52687 1168 ft 180 kts 180°
2026-05-05 14:04 49.97692 8.52731 1741 ft 180 kts 181°
2026-05-05 14:04 49.96397 8.52797 2002 ft 193 kts 179°
2026-05-05 14:05 49.94982 8.52911 2122 ft 214 kts 178°
2026-05-05 14:05 49.93463 8.53038 2432 ft 226 kts 178°
2026-05-05 14:05 49.91876 8.53169 2991 ft 229 kts 178°
2026-05-05 14:05 49.90287 8.53297 3729 ft 228 kts 178°
2026-05-05 14:06 49.88700 8.53417 4423 ft 229 kts 178°
2026-05-05 14:06 49.87094 8.53534 5068 ft 231 kts 179°
2026-05-05 14:06 49.85480 8.53650 5724 ft 232 kts 179°
2026-05-05 14:06 49.83876 8.53762 6363 ft 234 kts 179°
2026-05-05 14:07 49.82240 8.53874 6989 ft 235 kts 178°
2026-05-05 14:07 49.80591 8.53985 7605 ft 238 kts 178°
2026-05-05 14:07 49.78928 8.54097 8231 ft 239 kts 178°
2026-05-05 14:07 49.77260 8.54048 8699 ft 250 kts 185°
2026-05-05 14:08 49.75450 8.53819 8916 ft 269 kts 185°
2026-05-05 14:08 49.73552 8.53565 9442 ft 276 kts 185°
2026-05-05 14:08 49.71611 8.53302 9996 ft 283 kts 185°
2026-05-05 14:08 49.69599 8.53029 10129 ft 303 kts 185°
2026-05-05 14:09 49.67411 8.52733 10263 ft 324 kts 185°
2026-05-05 14:09 49.65119 8.52426 10390 ft 343 kts 184°
2026-05-05 14:09 49.62681 8.52101 10649 ft 355 kts 184°
2026-05-05 14:09 49.60198 8.51770 11170 ft 360 kts 184°
2026-05-05 14:10 49.57716 8.51441 11737 ft 363 kts 184°
2026-05-05 14:10 49.55188 8.51106 12311 ft 366 kts 184°
2026-05-05 14:10 49.52628 8.50764 12888 ft 368 kts 184°
2026-05-05 14:10 49.50056 8.50422 13454 ft 371 kts 184°
2026-05-05 14:11 49.47494 8.50086 13968 ft 374 kts 184°
2026-05-05 14:11 49.44883 8.49749 14460 ft 377 kts 184°
2026-05-05 14:11 49.42258 8.49410 14945 ft 379 kts 185°
2026-05-05 14:11 49.39649 8.49070 15428 ft 381 kts 184°
2026-05-05 14:12 49.36971 8.48723 15905 ft 384 kts 184°
2026-05-05 14:12 49.34329 8.48384 16377 ft 386 kts 184°
2026-05-05 14:12 49.31636 8.48034 16853 ft 388 kts 184°
2026-05-05 14:12 49.28912 8.47679 17335 ft 391 kts 185°
2026-05-05 14:13 49.26226 8.47330 17792 ft 394 kts 185°
2026-05-05 14:13 49.23475 8.46972 18227 ft 396 kts 185°
2026-05-05 14:13 49.20734 8.46616 18605 ft 398 kts 185°
2026-05-05 14:13 49.17949 8.46254 19019 ft 400 kts 185°
2026-05-05 14:14 49.15167 8.45893 19414 ft 401 kts 185°
2026-05-05 14:14 49.12403 8.45534 19789 ft 404 kts 185°
2026-05-05 14:14 49.09586 8.45172 20167 ft 406 kts 185°
2026-05-05 14:14 49.06762 8.44783 20550 ft 408 kts 187°
2026-05-05 14:15 49.03974 8.43938 20921 ft 410 kts 193°
2026-05-05 14:15 49.01208 8.42963 21308 ft 412 kts 193°
2026-05-05 14:15 48.98402 8.41979 21704 ft 414 kts 193°
2026-05-05 14:15 48.95579 8.40992 22096 ft 415 kts 193°
2026-05-05 14:16 48.92747 8.40004 22484 ft 418 kts 193°
2026-05-05 14:16 48.89940 8.39025 22866 ft 420 kts 193°
2026-05-05 14:16 48.87068 8.38025 23258 ft 422 kts 193°
2026-05-05 14:16 48.84194 8.37032 23598 ft 424 kts 192°
2026-05-05 14:17 48.81337 8.36050 23905 ft 425 kts 192°
2026-05-05 14:17 48.78440 8.35054 24210 ft 427 kts 192°
2026-05-05 14:17 48.75563 8.34042 24474 ft 429 kts 193°
2026-05-05 14:17 48.72641 8.32981 24770 ft 431 kts 193°
2026-05-05 14:18 48.69711 8.31899 25049 ft 433 kts 193°
2026-05-05 14:18 48.66808 8.30822 25341 ft 434 kts 193°
2026-05-05 14:18 48.63852 8.29733 25621 ft 436 kts 193°
2026-05-05 14:18 48.60892 8.28648 25918 ft 437 kts 193°
2026-05-05 14:19 48.57919 8.27561 26209 ft 439 kts 193°
2026-05-05 14:19 48.54945 8.26480 26495 ft 440 kts 192°
2026-05-05 14:19 48.51997 8.25414 26782 ft 442 kts 192°
2026-05-05 14:19 48.48996 8.24331 27050 ft 443 kts 192°
2026-05-05 14:20 48.45980 8.23236 27334 ft 444 kts 192°
2026-05-05 14:20 48.42980 8.22141 27706 ft 443 kts 192°
2026-05-05 14:20 48.39987 8.21046 28079 ft 441 kts 192°
2026-05-05 14:20 48.37038 8.19968 28447 ft 440 kts 192°
2026-05-05 14:21 48.34051 8.18877 28835 ft 439 kts 192°
2026-05-05 14:21 48.31080 8.17796 29204 ft 437 kts 192°
2026-05-05 14:21 48.28119 8.16720 29556 ft 436 kts 192°
2026-05-05 14:21 48.25209 8.15565 29913 ft 436 kts 197°
2026-05-05 14:22 48.22405 8.13815 30209 ft 437 kts 204°
2026-05-05 14:22 48.19679 8.11778 30503 ft 436 kts 204°
2026-05-05 14:22 48.16962 8.09760 30797 ft 435 kts 204°
2026-05-05 14:22 48.14268 8.07766 31088 ft 435 kts 205°
2026-05-05 14:23 48.11549 8.05763 31391 ft 434 kts 204°
2026-05-05 14:23 48.08832 8.03766 31697 ft 433 kts 204°
2026-05-05 14:23 48.06127 8.01778 31979 ft 432 kts 205°
2026-05-05 14:23 48.03464 7.99822 32269 ft 431 kts 205°
2026-05-05 14:24 48.00768 7.97839 32552 ft 431 kts 205°
2026-05-05 14:24 47.98073 7.95857 32843 ft 430 kts 205°
2026-05-05 14:24 47.95386 7.93882 33128 ft 429 kts 205°
2026-05-05 14:24 47.92700 7.91909 33429 ft 428 kts 205°
2026-05-05 14:25 47.90055 7.89973 33739 ft 426 kts 205°
2026-05-05 14:25 47.87384 7.88024 33985 ft 426 kts 205°
2026-05-05 14:25 47.84721 7.86087 34205 ft 425 kts 205°
2026-05-05 14:25 47.82094 7.84180 34424 ft 424 kts 205°
2026-05-05 14:26 47.79424 7.82240 34637 ft 424 kts 205°
2026-05-05 14:26 47.76774 7.80312 34803 ft 424 kts 205°
2026-05-05 14:26 47.71500 7.76476 34861 ft 421 kts 206°
2026-05-05 14:27 47.66257 7.72677 34863 ft 420 kts 206°
2026-05-05 14:27 47.60992 7.68869 34864 ft 420 kts 206°
2026-05-05 14:28 47.55749 7.65085 34866 ft 420 kts 206°
2026-05-05 14:28 47.50484 7.61305 34868 ft 419 kts 206°
2026-05-05 14:29 47.45261 7.57561 34869 ft 418 kts 206°
2026-05-05 14:29 47.40004 7.53796 34870 ft 418 kts 206°
2026-05-05 14:30 47.34783 7.50067 34867 ft 418 kts 206°
2026-05-05 14:30 47.29568 7.46345 34911 ft 417 kts 206°
2026-05-05 14:31 47.25183 7.43216 34911 ft 418 kts 206°
2026-05-05 14:31 47.19975 7.39514 34907 ft 418 kts 207°
2026-05-05 14:32 47.15260 7.34553 34901 ft 418 kts 225°
2026-05-05 14:32 47.11595 7.27982 34900 ft 418 kts 230°
2026-05-05 14:33 47.07961 7.21301 34890 ft 417 kts 230°
2026-05-05 14:33 47.04346 7.14685 34892 ft 417 kts 230°
2026-05-05 14:34 47.00709 7.08008 34896 ft 417 kts 230°
2026-05-05 14:34 46.97089 7.01377 34901 ft 417 kts 230°
2026-05-05 14:35 46.93465 6.94775 34936 ft 416 kts 230°
2026-05-05 14:35 46.89505 6.88616 34925 ft 415 kts 219°
2026-05-05 14:36 46.85040 6.83331 34918 ft 415 kts 219°
2026-05-05 14:36 46.80555 6.77990 34915 ft 415 kts 219°